Location: Boiro
(42.6475°N, 8.8834°W)
Time: 12:45:04
(UTC+01:00)

Envisat - Pass Details

Date: 29 October 2021
Orbit: 764 x 766 km, 98.2° (Epoch: 07 December)

Event Time Altitude Azimuth Distance (km) Brightness Sun altitude
Rises 08:11:56 0° 8° (N) 3,242 6.2 -10.5°
Reaches altitude 10° 08:14:17 10° 3° (N) 2,311 5.4 -10.0°
Maximum altitude 08:19:13 52° 289° (WNW) 953 3.1 -9.1°
Drops below altitude 10° 08:24:06 10° 214° (SSW) 2,294 5.2 -8.3°
Sets 08:26:26 0° 209° (SSW) 3,216 6.0 -7.8°
